Location: Góry Miechowskie
(50.3599°N, 20.1803°E)
Time: 21:32:11
(UTC+00:00)

S-56A Canister/Altair - Pass Details

Date: 16 September 2024
Orbit: 636 x 2487 km, 38.9° (Epoch: 09 October)

Event Time Altitude Azimuth Distance (km) Brightness Sun altitude
Rises 21:00:08 0° 264° (W) 3,890 11.4 -33.7°
Reaches altitude 10° 21:02:51 10° 254° (WSW) 3,162 10.7 -34.0°
Enters shadow 21:05:34 21° 237° (WSW) 2,633 10.1 -34.2°
Maximum altitude 21:09:39 31° 196° (SSW) 2,474 - -34.4°
Drops below altitude 10° 21:19:02 10° 141° (SE) 4,414 - -35.1°
Sets 21:23:39 0° 133° (SE) 5,682 - -35.3°
